Flag for Australia Weather past 2 weeks in Sydney, New South Wales, Australia

Now
68 °F

Passing clouds.


Feels Like: 68 °F
Forecast: 65 / 76 °F
Wind: 10 mph from Southwest

Location: Sydney Airport

Current Time: Feb 1, 2015 at 6:30:19 AM

Latest Report: Feb 1, 2015 at 6:00 AM


Visibility: N/A

Pressure: 29.77 "Hg

Humidity: 78%

Dew point: 61 °F

Location of SydneyLocation

Historic Weather in Sydney — Graph

°F

Sydney temperature yesterday

Maximum temperature yesterday: 77 °F (at 1:30 PM)
Minimum temperature yesterday: 63 °F (at 5:00 AM)
Average temperature yesterday: 71 °F

Past Weeks' High & Low Weather Summary

 TemperatureHumidityPressure
High95 °F (Jan 17, 2:00 PM)100% (Jan 27, 4:00 AM)30.01 "Hg (Jan 27, 4:00 AM)
Low59 °F (Jan 30, 3:00 AM)15% (Jan 17, 2:00 PM)29.56 "Hg (Jan 25, 4:30 AM)
Average73 °F69%29.82 "Hg
* Reported Jan 17 5:00 AM — Feb 1 5:00 AM, Sydney, Weather by CustomWeather, © 2014

Note: Actual official high and low records may vary slightly from our data, if they occured in-between our weather recording intervals... More about our weather records

Advertising

Sydney weather history for previous 24 hours

 ConditionsComfort  
Time TempWeatherWind HumidityBarometerVisibility
5:00 AM
Feb 1
68 °FClear.10 mph78%29.74 "Hg10 mi
4:30 AM68 °FClear.10 mph78%29.74 "Hg10 mi
3:30 AM70 °FClear.8 mph73%29.74 "Hg10 mi
3:00 AM70 °FClear.10 mph73%29.77 "Hg10 mi
2:00 AM70 °FClear.9 mph69%29.77 "Hg10 mi
1:30 AM70 °FClear.9 mph73%29.77 "Hg10 mi
1:00 AM72 °FClear.8 mph69%29.77 "Hg10 mi
12:30 AM72 °FClear.No wind65%29.80 "Hg10 mi
12:00 AM72 °FClear.No wind65%29.80 "Hg10 mi
11:30 PM
Jan 31
72 °FClear.5 mph65%29.80 "Hg10 mi
11:00 PM72 °FClear.5 mph65%29.80 "Hg10 mi
10:30 PM72 °FClear.7 mph65%29.80 "Hg10 mi
10:00 PM72 °FClear.8 mph61%29.80 "Hg10 mi
9:30 PM72 °FClear.8 mph61%29.77 "Hg10 mi
9:00 PM72 °FClear.8 mph61%29.77 "Hg10 mi
8:30 PM72 °FPassing clouds.7 mph61%29.74 "HgN/A
8:00 PM73 °FPartly sunny.8 mph50%29.74 "HgN/A
7:30 PM73 °FPartly sunny.8 mph50%29.74 "HgN/A
7:00 PM73 °FPartly sunny.10 mph53%29.74 "HgN/A
6:30 PM73 °FSunny.10 mph53%29.71 "Hg10 mi
6:00 PM75 °FSunny.12 mph50%29.71 "Hg10 mi
5:30 PM75 °FSunny.12 mph47%29.71 "Hg10 mi
5:00 PM75 °FSunny.13 mph47%29.71 "Hg10 mi
4:30 PM75 °FSunny.14 mph47%29.71 "Hg10 mi
4:00 PM75 °FSunny.14 mph44%29.71 "Hg10 mi
3:30 PM75 °FSunny.15 mph44%29.71 "Hg10 mi
3:00 PM77 °FSunny.14 mph39%29.68 "Hg10 mi
2:00 PM75 °FSunny.14 mph39%29.71 "Hg10 mi
1:30 PM77 °FSunny.15 mph39%29.71 "Hg10 mi
1:00 PM75 °FSunny.14 mph41%29.71 "Hg10 mi
12:30 PM75 °FSunny.12 mph39%29.74 "Hg10 mi
12:00 PM73 °FPassing clouds.12 mph44%29.74 "HgN/A
11:00 AM72 °FPassing clouds.12 mph50%29.74 "HgN/A
10:30 AM72 °FPassing clouds.8 mph47%29.77 "HgN/A
10:00 AM72 °FPassing clouds.7 mph47%29.77 "HgN/A
9:30 AM70 °FPassing clouds.6 mph53%29.77 "HgN/A
9:00 AM68 °FPassing clouds.6 mph64%29.77 "HgN/A
8:00 AM68 °FSunny.5 mph60%29.77 "Hg10 mi
7:30 AM66 °FSunny.6 mph68%29.74 "Hg10 mi
7:00 AM64 °FPassing clouds.7 mph73%29.74 "HgN/A
6:30 AM63 °FPassing clouds.6 mph77%29.74 "HgN/A
6:00 AM64 °FPassing clouds.6 mph73%29.74 "HgN/A
Weather by CustomWeather, © 2014

See weather overviewHow to use our weather pages